Owatonna, MN

1:02 AM CDT on September 23, 2017 (GMT -0500)
Owatonna Degner Regional

Weather History for KOWA - December, 2013

Change the Weather History Date:

Friday, December 20, 2013

  Actual Average Record
Temperature  
Mean Temperature 18 °F -  
Max Temperature 19 °F 24 °F 51 °F (1967)
Min Temperature 17 °F 7 °F -26 °F (1983)
Degree Days  
Heating Degree Days 47    
Moisture  
Dew Point 13 °F    
Average Humidity 81    
Maximum Humidity 93    
Minimum Humidity 74    
Precipitation  
Precipitation 0.00 in - - ()
Sea Level Pressure  
Sea Level Pressure 29.89 in    
Wind  
Wind Speed 8 mph (North)    
Max Wind Speed 14 mph    
Max Gust Speed 21 mph    
Visibility 10 miles    
Events      
Averages and records for this station are not official NWS values.
T = Trace of Precipitation, MM = Missing Value Source: NWS Daily Summary

Daily Weather History Graph

Daily Weather History Graph

Search for Another Location

Airport or City:

Trip Planner

Search our weather history database for the weather conditions in past years. The results will help you decide how hot, cold, wet, or windy it might be!

Date:

Astronomy

Dec. 20, 2013 Rise Set
Actual Time 7:44 AM CST 4:37 PM CST
Civil Twilight 7:11 AM CST 5:10 PM CST
Nautical Twilight 6:34 AM CST 5:46 PM CST
Astronomical Twilight 5:59 AM CST 6:22 PM CST
Moon 8:04 PM CST (12/20) 9:33 AM CST (12/20)
Length of Visible Light 9h 58m
Length of Day
8h 52m
Waning Gibbous, 90% of the Moon is Illuminated
Dec 20
Waning Gibbous
Dec 25
Last Quarter
Jan 1
New
Jan 7
First Quarter
Jan 15
Full

Hourly Weather History & Observations

Time (CST) Temp. Windchill Dew Point Humidity Pressure Visibility Wind Dir Wind Speed Gust Speed Precip Events Conditions
12:01 AM 19.4 °F 9.5 °F 14.0 °F 80% 29.93 in 10.0 mi NNE 8.1 mph - N/A   Overcast
12:21 AM 19.4 °F 7.9 °F 15.8 °F 86% 29.92 in 10.0 mi NNE 10.4 mph - N/A   Overcast
12:41 AM 19.4 °F 7.2 °F 15.8 °F 86% 29.93 in 10.0 mi NNE 11.5 mph - N/A   Overcast
1:01 AM 19.4 °F 7.2 °F 14.0 °F 80% 29.93 in 4.0 mi NNE 11.5 mph - N/A   Overcast
1:21 AM 19.4 °F 7.9 °F 14.0 °F 80% 29.93 in 7.0 mi North 10.4 mph - N/A   Overcast
1:41 AM 19.4 °F 6.6 °F 14.0 °F 80% 29.91 in 7.0 mi NNE 12.7 mph 20.7 mph N/A   Overcast
2:01 AM 19.4 °F 6.0 °F 14.0 °F 80% 29.92 in 7.0 mi NNE 13.8 mph - N/A   Overcast
2:21 AM 19.4 °F 7.9 °F 14.0 °F 80% 29.92 in 10.0 mi NNE 10.4 mph 17.3 mph N/A   Overcast
2:41 AM 17.6 °F 4.3 °F 14.0 °F 86% 29.93 in 10.0 mi NE 12.7 mph 18.4 mph N/A   Overcast
3:01 AM 17.6 °F 3.7 °F 12.2 °F 79% 29.92 in 5.0 mi ENE 13.8 mph 17.3 mph N/A   Overcast
3:21 AM 17.6 °F 6.4 °F 12.2 °F 79% 29.92 in 10.0 mi NE 9.2 mph 16.1 mph N/A   Overcast
3:41 AM 17.6 °F 5.7 °F 12.2 °F 79% 29.92 in 10.0 mi NE 10.4 mph 18.4 mph N/A   Overcast
4:01 AM 17.6 °F 6.4 °F 12.2 °F 79% 29.92 in 10.0 mi NE 9.2 mph - N/A   Overcast
4:21 AM 17.6 °F 6.4 °F 12.2 °F 79% 29.92 in 10.0 mi NE 9.2 mph - N/A   Scattered Clouds
4:41 AM 17.6 °F 8.2 °F 12.2 °F 79% 29.92 in 10.0 mi NNE 6.9 mph - N/A   Scattered Clouds
5:01 AM 17.6 °F 6.4 °F 12.2 °F 79% 29.92 in 10.0 mi NNE 9.2 mph - N/A   Overcast
5:21 AM 17.6 °F 6.4 °F 12.2 °F 79% 29.92 in 10.0 mi NNE 9.2 mph - N/A   Overcast
6:01 AM 17.6 °F 6.4 °F 12.2 °F 79% 29.92 in 10.0 mi NNE 9.2 mph - N/A   Overcast
6:21 AM 17.6 °F 5.7 °F 12.2 °F 79% 29.92 in 10.0 mi NNE 10.4 mph - N/A   Overcast
7:01 AM 17.6 °F 7.3 °F 12.2 °F 79% 29.93 in 10.0 mi North 8.1 mph - N/A   Overcast
7:21 AM 17.6 °F 6.4 °F 12.2 °F 79% 29.93 in 10.0 mi North 9.2 mph - N/A   Overcast
7:41 AM 17.6 °F 6.4 °F 12.2 °F 79% 29.93 in 10.0 mi North 9.2 mph - N/A   Overcast
8:01 AM 17.6 °F 8.2 °F 12.2 °F 79% 29.93 in 10.0 mi North 6.9 mph - N/A   Overcast
8:21 AM 17.6 °F 6.4 °F 12.2 °F 79% 29.94 in 10.0 mi NE 9.2 mph - N/A   Overcast
8:41 AM 17.6 °F 7.3 °F 12.2 °F 79% 29.93 in 10.0 mi NNE 8.1 mph - N/A   Overcast
9:01 AM 17.6 °F 5.7 °F 12.2 °F 79% 29.92 in 10.0 mi NNE 10.4 mph - N/A   Overcast
9:21 AM 17.6 °F 5.7 °F 12.2 °F 79% 29.93 in 10.0 mi NNE 10.4 mph - N/A   Overcast
9:41 AM 17.6 °F 7.3 °F 12.2 °F 79% 29.93 in 10.0 mi NNE 8.1 mph - N/A   Overcast
10:01 AM 17.6 °F 6.4 °F 12.2 °F 79% 29.93 in 10.0 mi North 9.2 mph - N/A   Overcast
10:21 AM 17.6 °F 6.4 °F 12.2 °F 79% 29.93 in 10.0 mi North 9.2 mph - N/A   Overcast
10:41 AM 17.6 °F 6.4 °F 12.2 °F 79% 29.92 in 10.0 mi NE 9.2 mph - N/A   Overcast
11:01 AM 19.4 °F 9.5 °F 12.2 °F 74% 29.92 in 10.0 mi NE 8.1 mph - N/A   Overcast
11:21 AM 19.4 °F 11.5 °F 14.0 °F 80% 29.91 in 10.0 mi NE 5.8 mph - N/A   Overcast
11:41 AM 19.4 °F 12.8 °F 14.0 °F 80% 29.91 in 10.0 mi NNE 4.6 mph - N/A   Overcast
12:01 PM 19.4 °F 14.3 °F 14.0 °F 80% 29.91 in 10.0 mi NNE 3.5 mph - N/A   Overcast
12:21 PM 19.4 °F 10.4 °F 14.0 °F 80% 29.89 in 10.0 mi North 6.9 mph - N/A   Overcast
12:41 PM 19.4 °F 10.4 °F 14.0 °F 80% 29.88 in 10.0 mi NNE 6.9 mph - N/A   Overcast
1:01 PM 19.4 °F 10.4 °F 14.0 °F 80% 29.88 in 10.0 mi North 6.9 mph - N/A   Overcast
1:21 PM 19.4 °F 14.3 °F 14.0 °F 80% 29.87 in 10.0 mi North 3.5 mph - N/A   Overcast
1:41 PM 19.4 °F 11.5 °F 14.0 °F 80% 29.87 in 10.0 mi North 5.8 mph - N/A   Overcast
2:01 PM 19.4 °F 11.5 °F 14.0 °F 80% 29.86 in 10.0 mi NNE 5.8 mph - N/A   Overcast
2:21 PM 19.4 °F 12.8 °F 14.0 °F 80% 29.86 in 10.0 mi NNE 4.6 mph - N/A   Overcast
2:41 PM 19.4 °F 12.8 °F 14.0 °F 80% 29.85 in 10.0 mi North 4.6 mph - N/A   Overcast
3:01 PM 19.4 °F 12.8 °F 14.0 °F 80% 29.86 in 10.0 mi North 4.6 mph - N/A   Overcast
3:21 PM 19.4 °F 10.4 °F 14.0 °F 80% 29.85 in 10.0 mi North 6.9 mph - N/A   Overcast
3:41 PM 19.4 °F 12.8 °F 14.0 °F 80% 29.86 in 10.0 mi North 4.6 mph - N/A   Overcast
4:01 PM 19.4 °F 12.8 °F 14.0 °F 80% 29.86 in 10.0 mi North 4.6 mph - N/A   Overcast
4:21 PM 19.4 °F 11.5 °F 14.0 °F 80% 29.86 in 10.0 mi North 5.8 mph - N/A   Overcast
4:41 PM 19.4 °F 11.5 °F 14.0 °F 80% 29.87 in 10.0 mi North 5.8 mph - N/A   Overcast
5:01 PM 19.4 °F 12.8 °F 14.0 °F 80% 29.86 in 10.0 mi North 4.6 mph - N/A   Overcast
5:21 PM 19.4 °F 14.3 °F 14.0 °F 80% 29.86 in 10.0 mi NE 3.5 mph - N/A   Overcast
5:41 PM 17.6 °F 12.3 °F 14.0 °F 86% 29.87 in 10.0 mi NNE 3.5 mph - N/A   Overcast
6:01 PM 17.6 °F 12.3 °F 14.0 °F 86% 29.87 in 10.0 mi NNE 3.5 mph - N/A   Overcast
6:21 PM 17.6 °F - 14.0 °F 86% 29.87 in 10.0 mi North 2.3 mph - N/A   Overcast
6:41 PM 17.6 °F - 14.0 °F 86% 29.87 in 10.0 mi North 2.3 mph - N/A   Overcast
7:41 PM 19.4 °F - 14.0 °F 80% 29.86 in 10.0 mi Calm Calm - N/A   Overcast
8:01 PM 17.6 °F - 14.0 °F 86% 29.86 in 10.0 mi Calm Calm - N/A   Overcast
8:21 PM 19.4 °F - 14.0 °F 80% 29.87 in 10.0 mi WNW 1.2 mph - N/A   Overcast
8:41 PM 19.4 °F 14.3 °F 14.0 °F 80% 29.86 in 10.0 mi NW 3.5 mph - N/A   Overcast
9:01 PM 19.4 °F 14.3 °F 14.0 °F 80% 29.84 in 10.0 mi NNW 3.5 mph - N/A   Overcast
9:21 PM 19.4 °F 12.8 °F 14.0 °F 80% 29.82 in 10.0 mi NNW 4.6 mph - N/A   Overcast
9:41 PM 17.6 °F - 14.0 °F 86% 29.81 in 10.0 mi North 2.3 mph - N/A   Overcast
10:01 PM 17.6 °F - 14.0 °F 86% 29.82 in 10.0 mi North 2.3 mph - N/A   Overcast
10:21 PM 19.4 °F 14.3 °F 14.0 °F 80% 29.83 in 10.0 mi NW 3.5 mph - N/A   Overcast
10:41 PM 17.6 °F 12.3 °F 15.8 °F 93% 29.83 in 10.0 mi WNW 3.5 mph - N/A   Overcast
11:01 PM 17.6 °F - 14.0 °F 86% 29.83 in 10.0 mi West 2.3 mph - N/A   Overcast
11:21 PM 17.6 °F 10.7 °F 15.8 °F 93% 29.83 in 10.0 mi West 4.6 mph - N/A   Overcast
11:41 PM 17.6 °F 10.7 °F 14.0 °F 86% 29.83 in 10.0 mi WNW 4.6 mph - N/A   Mostly Cloudy